Orlando International, FL

11:45 PM EDT on April 24, 2017 (GMT -0400)
Orlando International

Weather History for KMCO - February, 2013

Change the Weather History Date:

Saturday, February 16, 2013

  Actual Average Record
Temperature  
Mean Temperature 60 °F 63 °F  
Max Temperature 71 °F 74 °F 87 °F (1982)
Min Temperature 49 °F 52 °F 32 °F (1985)
Degree Days  
Heating Degree Days 5 4  
Month to date heating degree days 51 75  
Since 1 July heating degree days 273 459  
Cooling Degree Days 0 2  
Month to date cooling degree days 45 32  
Year to date cooling degree days 146 77  
Growing Degree Days 11 (Base 50)    
Moisture  
Dew Point 42 °F    
Average Humidity 63    
Maximum Humidity 93    
Minimum Humidity 32    
Precipitation  
Precipitation 0.00 in 0.09 in 2.36 in (1978)
Month to date precipitation 0.50 1.34  
Year to date precipitation 0.74 3.69  
Sea Level Pressure  
Sea Level Pressure 29.98 in    
Wind  
Wind Speed 12 mph (NW)    
Max Wind Speed 29 mph    
Max Gust Speed 38 mph    
Visibility 10 miles    
Events      
T = Trace of Precipitation, MM = Missing Value Source: NWS Daily Summary

Daily Weather History Graph

Daily Weather History Graph

Search for Another Location

Airport or City:

Trip Planner

Search our weather history database for the weather conditions in past years. The results will help you decide how hot, cold, wet, or windy it might be!

Date:

Astronomy

Feb. 16, 2013 Rise Set
Actual Time 7:02 AM EST 6:16 PM EST
Civil Twilight 6:38 AM EST 6:40 PM EST
Nautical Twilight 6:10 AM EST 7:08 PM EST
Astronomical Twilight 5:43 AM EST 7:35 PM EST
Moon 10:50 AM EST (2/16) No Moon Set
Length of Visible Light 12h 02m
Length of Day
11h 14m
Waxing Crescent, 39% of the Moon is Illuminated
Feb 16
Waxing Crescent
Feb 17
First Quarter
Feb 25
Full
Mar 4
Last Quarter
Mar 11
New

Hourly Weather History & Observations

Time (EST) Temp. Dew Point Humidity Pressure Visibility Wind Dir Wind Speed Gust Speed Precip Events Conditions
12:53 AM 55.9 °F 53.1 °F 90% 29.99 in 10.0 mi North 4.6 mph - N/A   Overcast
1:53 AM 55.9 °F 53.1 °F 90% 29.97 in 10.0 mi NNW 6.9 mph - N/A   Overcast
2:53 AM 55.9 °F 53.1 °F 90% 29.96 in 10.0 mi North 4.6 mph - N/A   Overcast
3:53 AM 55.0 °F 52.0 °F 89% 29.94 in 10.0 mi North 5.8 mph - N/A   Overcast
4:53 AM 55.0 °F 50.0 °F 83% 29.95 in 10.0 mi NNW 5.8 mph - N/A   Overcast
5:53 AM 54.0 °F 48.9 °F 83% 29.95 in 10.0 mi WNW 4.6 mph - N/A   Mostly Cloudy
6:53 AM 52.0 °F 48.9 °F 89% 29.96 in 10.0 mi NW 6.9 mph - N/A   Mostly Cloudy
7:53 AM 53.1 °F 52.0 °F 96% 29.96 in 10.0 mi NW 3.5 mph - N/A   Overcast
8:53 AM 59.0 °F 51.1 °F 75% 29.96 in 10.0 mi NW 8.1 mph - N/A   Overcast
9:53 AM 63.0 °F 42.1 °F 46% 29.97 in 10.0 mi West 8.1 mph - N/A   Mostly Cloudy
10:53 AM 66.0 °F 37.9 °F 36% 29.96 in 10.0 mi WNW 13.8 mph - N/A   Mostly Cloudy
11:53 AM 68.0 °F 37.0 °F 32% 29.97 in 10.0 mi NW 18.4 mph 24.2 mph N/A   Mostly Cloudy
12:53 PM 68.0 °F 37.9 °F 33% 29.94 in 10.0 mi NW 18.4 mph 25.3 mph N/A   Mostly Cloudy
1:53 PM 71.1 °F 43.0 °F 36% 29.91 in 10.0 mi WNW 18.4 mph 27.6 mph N/A   Mostly Cloudy
2:53 PM 66.9 °F 41.0 °F 39% 29.92 in 10.0 mi West 21.9 mph 34.5 mph N/A   Mostly Cloudy
3:53 PM 66.0 °F 41.0 °F 40% 29.94 in 10.0 mi West 19.6 mph 28.8 mph N/A   Mostly Cloudy
4:53 PM 63.0 °F 39.9 °F 43% 29.96 in 10.0 mi West 24.2 mph 29.9 mph N/A   Scattered Clouds
5:53 PM 57.9 °F 34.0 °F 41% 29.97 in 10.0 mi WNW 20.7 mph 34.5 mph N/A   Scattered Clouds
6:53 PM 55.0 °F 30.0 °F 38% 30.02 in 10.0 mi West 12.7 mph - N/A   Partly Cloudy
7:53 PM 53.1 °F 36.0 °F 52% 30.04 in 10.0 mi WNW 12.7 mph - N/A   Clear
8:53 PM 52.0 °F 36.0 °F 54% 30.06 in 10.0 mi WNW 6.9 mph - N/A   Partly Cloudy
9:53 PM 52.0 °F 37.0 °F 57% 30.08 in 10.0 mi West 8.1 mph - N/A   Mostly Cloudy
10:53 PM 52.0 °F 36.0 °F 54% 30.10 in 10.0 mi NW 21.9 mph 31.1 mph N/A   Partly Cloudy
11:53 PM 50.0 °F 26.1 °F 39% 30.14 in 10.0 mi NW 18.4 mph 28.8 mph N/A   Partly Cloudy